LYTV

Details ICAO LYTV (TIV)
Name Tivat
Region Serbia and Montenegro
Timezone Europe/Podgorica (UTC+2.0)
Plans Departing 1088
Arriving 1752
Stats Elevation 20 ft / 6 m (AMSL)
Location 42.404700° 18.723300°
Runways 1
Magnetic Variation 4.651° E
Sunrise 2022-08-18 03:56:25 UTC / 2022-08-18 05:56:25 Local
Sunset 2022-08-18 17:44:31 UTC / 2022-08-18 19:44:31 Local
Advertisement - Login to hide

Runways

ID Width Length Bearing (true/mag) Surface Threshold Overrun Markings Lighting
14 148 ft / 45 m 8,210 ft / 2,503 m 138.97° / 134.32° ASPHALT 0 ft / 0 m 0 ft / 0 m APP CENTERLINE EDGE THRESHOLD MALSF
32 148 ft / 45 m 8,210 ft / 2,503 m 318.99° / 314.34° ASPHALT 0 ft / 0 m 0 ft / 0 m APP CENTERLINE EDGE THRESHOLD MALSF

Approach Navaids

Runway Type Ident Frequency Range Bearing (true/mag) Slope Elevation
32 DME TIV 111.30 MHz 18 nm / 33 km - - 49 ft / 15 m (AMSL)
32 LOC-LOC TIV 111.30 MHz 18 nm / 33 km 339.00° / 334.35° - 56 ft / 17 m (AMSL)

Map

Weather


0- 5 10 15 20 25 30 35+ Temperature / °C

Clouds and Precipitation
Forecast for 2022-08-18 06:00 UTC. Updated an hour ago

Ground ~20,000 ft ~40,000 ft Winds

METAR

LYTV 180430Z VRB01KT 9999 4700SE BR NSC 19/18 Q1013 NOSIG

TAF

TAF LYTV 172300Z 1800/1824 VRB02KT CAVOK TX33/1813Z TN17/1803Z

Frequencies

Tower 118.00 MHz Tivat tower
Approach 118.00 MHz Tivat Approach
Warning: Do not use this data for real-world aviation or navigation. No guarantee of current accuracy is given.